Regional Weather Roundup
Issued by NWS Spokane, WA

Home | Current Version | Previous Version | Text Only | Print | Product List | Glossary On
Versions: 1 2 3 4 5 6 7 8 9 10 11 12 13 14 15 16 17 18 19 20 21 22 23 24 25 26 27 28 29 30 31 32 33 34 35 36 37 38 39 40 41 42 43 44 45 46 47 48 49 50
733
NZUS01 KOTX 261657
RWROTX

Eastern Washington/Northern Idaho Roundup
National Weather Service, Spokane WA
900 AM PST SUN FEB 26 2017

Note: "fair" indicated few or no clouds below 12,000 feet with no
significant weather and/or obstructions to visibility.

...Northeast Washington and Northern Idaho Panhandle...

CITY           SKY/WX    TMP DP  RH WIND       PRES   REMARKS
Spokane Intl   LGT SNOW  29  27  92 SE3       29.72S FOG
Coeur d Alene  MIX PCPN  34  28  80 CALM      29.74S FOG
Deer Park      LGT SNOW  27  25  92 MISG      29.74S FOG

...Southeast Washington and southern Idaho Panhandle...

CITY           SKY/WX    TMP DP  RH WIND       PRES   REMARKS
Walla Walla    LGT SNOW  33  33 100 SE6       29.77F FOG     WCI  28
Pullman/Moscow LGT SNOW  29  27  92 S5        29.75S FOG     WCI  24
Lowell           N/A     33  30  88 CALM      29.83S

...Columbia Basin...

CITY           SKY/WX    TMP DP  RH WIND       PRES   REMARKS
Ephrata        LGT SNOW  32  28  85 CALM      29.73S VSB 1
Moses Lake     LGT SNOW  32  31  96 S6        29.75S VSB 1   WCI  26
Hermiston      LGT RAIN  37  35  92 SE8       29.78F
Pendleton      LGT SNOW  32  32 100 SE3       29.75F FOG

...East Slopes Cascades...

CITY           SKY/WX    TMP DP  RH WIND       PRES   REMARKS
The Dalles     CLOUDY    39  32  76 SW3       29.74F
Yakima         CLOUDY    36  30  80 E7        29.73F
Ellensburg     LGT SNOW  32  28  85 E7        29.70F FOG     WCI  26
Omak           LGT SNOW  29  25  85 N9        29.78S FOG     WCI  20
Sunnyside      LGT RAIN  32  31  98 E6        29.76F WCI  26

...Southern British Columbia...

CITY           SKY/WX    TMP DP  RH WIND       PRES   REMARKS

...Western Montana...

CITY           SKY/WX    TMP DP  RH WIND       PRES   REMARKS
Kalispell      LGT SNOW  27  23  86 SE6       29.72S FOG     WCI  20
Missoula       CLOUDY    28  23  81 E10       29.74S WCI  19

...Neighboring Cities...

CITY           SKY/WX    TMP DP  RH WIND       PRES   REMARKS
Portland       LGT RAIN  39  36  89 S9        29.71F
Boise          CLOUDY    34  17  50 SE17      29.82S WCI  23
Great Falls    LGT SNOW  23  19  85 NE9       29.74R VSB 1   WCI  13



USA.gov is the U.S. government's official web portal to all federal, state and local government web resources and services.